Vertical_Velocity
-3 10 -3 -9 -4 -2 3 3 1 -5 -3 3 -2 -1 -4 -2 0 2 3 3 1 -1 -1 1 -3 -3 -1 -3 -2 -2 -1 -1 -1 -0 -0 2 1 -1 1 -1 -6 -1 -2 -3
12 -2 -9 1 0 3 2 2 -6 -5 -1 5 -1 -7 -4 -0 -2 -2 1 -1 1 2 3 1 1 1 1 1 -2 -2 -3 -4 -3 -1 -0 -0 -2 1 1 1 2 1 -0 -3
-0 -1 1 5 1 6 -1 2 -2 3 -1 -1 11 -5 1 8 0 1 -2 -1 -0 2 3 1 0 1 2 -0 1 2 -1 -0 -2 -2 -0 -0 0 8 -1 0 4 -2 -3 1
-4 -11 -1 2 -0 4 5 -3 1 1 7 0 -2 -8 -0 2 2 2 1 0 0 1 -1 2 -2 -1 -2 -0 -2 -1 -1 -1 -2 -3 -2 -1 -0 -1 0 1 1 1 0 -4
-23 1 3 5 -15 3 -11 -0 -0 1 1 11 -8 15 -21 3 7 0 0 1 -0 -0 -1 0 -2 -1 0 -0 -1 0 1 1 -2 -0 -3 -2 -3 -1 0 -4 -3 -1 1 3
-10 0 2 -11 -2 -2 -1 4 4 3 4 9 -12 14 -12 1 -8 2 2 1 1 -3 -0 -2 -2 -2 -2 -3 -3 -1 -2 0 -1 -1 -1 -4 -3 -3 -2 -1 -3 -5 1 0
5 -2 0 2 4 6 8 8 2 11 11 -11 -0 4 -14 3 0 -1 -2 0 2 -1 -2 -1 -0 -1 -3 -1 -2 -2 -2 -1 -2 -2 -2 0 -2 1 3 -2 1 -0 -1 -3
-2 24 2 -3 -7 -13 -7 -1 -1 -2 0 -5 2 -3 -1 2 -0 -1 -1 -0 -1 -2 -2 0 -0 -1 -1 2 -3 -2 0 1 1 -0 -1 -2 1 -6 0 5 -4 -1 -4 -2
3 1 12 1 -1 14 -3 10 -12 9 -0 12 -5 -11 12 3 4 2 0 1 -0 -2 1 -2 -2 -1 -1 -0 -3 -2 -2 -0 -2 0 -0 -2 1 -2 2 -0 -6 7 3 -5
-5 10 -3 2 11 -0 7 -8 4 2 2 1 -7 -3 -3 5 1 1 3 -0 -2 -0 -0 -1 2 0 -1 -3 -2 -3 -3 -3 -2 1 -1 -0 0 -3 -1 1 2 7 -1 -2
0 9 9 5 2 -7 9 4 5 4 6 2 0 -13 4 -3 -3 -3 -2 -1 -4 -4 -1 -3 0 0 -2 -0 -1 -2 -3 -3 -1 1 -1 1 -0 0 -1 -2 -3 0 1 -0
-12 0 1 -17 -8 -2 -2 -8 -0 6 -12 -2 6 -28 -0 -1 -1 -1 -3 -1 -2 -6 -2 1 -0 -0 0 0 -3 -2 -4 -2 -0 -1 -1 -1 -1 -2 -1 -3 -2 -1 -5 3
-3 -2 3 0 3 2 4 -6 -2 1 6 -9 11 -14 1 0 1 0 1 2 -2 -1 1 0 -1 2 1 -0 -2 -3 -2 -4 1 -0 3 -1 0 -0 1 0 -0 0 2 -1
-1 1 2 -8 -18 -5 3 -0 -1 8 9 -10 -11 -11 -8 1 -1 -2 -1 3 -1 -3 -0 -0 3 -2 -0 -3 -3 -0 -1 -2 -0 -1 3 0 -0 0 1 -0 2 -2 -1 -2
-2 1 7 -5 -2 1 -2 -0 -2 6 -6 7 -15 2 -10 -3 0 -8 -2 1 2 -0 2 1 2 -2 -3 -0 -2 -2 1 -2 1 -1 0 0 0 0 -1 -2 -2 -2 -3 -2
2 -7 4 -7 -3 3 2 -1 1 -0 -3 3 3 -9 -3 -9 -0 4 -2 -3 -2 -0 1 2 4 -3 -2 -1 -2 -2 6 -2 -0 -2 1 0 0 -1 -1 -0 -1 -1 -1 -1
9 3 6 -14 1 3 6 -15 -2 -4 -0 7 6 -22 -3 -5 -1 -4 5 -4 -4 -2 2 2 3 -2 -1 -1 -2 0 -1 1 -1 2 1 -1 -1 -0 -1 -1 0 -0 -3 -3
1 3 2 -3 3 7 -28 -2 1 6 -4 -1 2 -4 -1 -2 -1 -4 2 -5 -6 -2 3 -2 2 -0 -2 -1 1 -2 1 -1 0 1 0 1 -1 -1 -0 -0 0 -1 -2 -1
4 3 0 4 1 -14 -7 -7 -3 5 -22 -1 2 -4 -4 1 -1 -2 -0 7 0 -1 -5 -1 -2 -2 -1 0 -3 0 0 -0 1 -0 1 -2 -1 -1 0 0 1 -1 -1 -0
6 5 10 5 8 -1 -20 -11 2 0 -15 -3 5 -3 0 0 4 -3 -4 11 3 2 -5 -7 2 -1 -1 2 -2 -1 1 0 -2 0 -1 -1 -1 -2 -0 -0 -2 0 0 -2
1 2 -1 -1 -0 -11 -12 -8 5 19 -34 -0 2 0 2 -2 3 6 -0 5 4 -4 -4 -0 1 0 -1 -0 -1 -1 0 -1 -0 -0 -2 1 -2 -2 -0 -2 -1 -2 -4 -1
-1 2 -2 5 9 -8 -3 5 7 -6 -1 -0 -1 -1 1 -2 1 1 2 1 -2 -3 -2 0 1 -2 -1 -1 -2 0 -1 -1 -1 -2 -2 -1 -1 -1 -3 -2 -0 -1 1 0
9 0 0 9 -2 -4 -6 -6 -1 -3 1 -1 -0 0 -5 -1 -1 -0 -0 1 -0 -2 -3 -0 -4 -2 -0 -1 0 1 -1 -2 1 -1 -2 -1 -1 -3 -2 -2 -0 1 2 1
-6 1 2 12 -11 -4 -2 1 -1 -1 1 -1 -1 1 1 -4 0 0 -1 0 -2 -1 -2 -2 -1 1 0 4 3 -1 -1 2 0 1 -1 0 0 -0 1 2 -2 -2 -1 -1
-3 3 -1 -7 -4 -0 -3 -3 1 0 -1 3 0 -1 -5 2 1 -5 -1 1 0 -2 -0 -0 -0 0 -1 1 1 0 2 2 -1 -1 -0 -1 -2 -0 -4 -3 -2 -2 -3 -2
0 -6 4 -9 -2 0 0 0 1 -0 -1 1 1 2 2 -0 -3 -2 0 -0 -2 -0 2 3 2 -0 1 1 0 2 0 -1 -0 1 1 0 -0 -2 4 5 -6 -1 -3 -3
Height
1497 1494 1485 1479 1480 1477 1478 1481 1478 1472 1473 1485 1489 1483 1480 1482 1489 1497 1501 1505 1508 1509 1510 1510 1508 1507 1505 1503 1501 1498 1495 1493 1491 1489 1489 1489 1487 1486 1485 1485 1484 1482 1481 1479
1493 1487 1475 1472 1479 1481 1483 1483 1480 1474 1475 1488 1484 1478 1473 1477 1488 1497 1502 1507 1507 1508 1508 1509 1509 1508 1507 1504 1502 1500 1497 1494 1492 1491 1489 1488 1487 1487 1484 1484 1482 1481 1479 1478
1479 1469 1473 1475 1483 1485 1480 1480 1477 1478 1475 1478 1477 1475 1463 1476 1490 1497 1504 1507 1508 1506 1506 1507 1508 1508 1507 1505 1503 1502 1499 1497 1493 1491 1491 1490 1489 1489 1485 1486 1481 1478 1477 1475
1474 1472 1475 1475 1479 1478 1478 1469 1481 1484 1486 1481 1471 1475 1459 1467 1484 1490 1495 1501 1504 1506 1505 1506 1506 1506 1505 1504 1502 1499 1498 1495 1493 1490 1490 1488 1489 1488 1486 1485 1482 1480 1477 1474
1467 1469 1471 1473 1470 1472 1477 1480 1483 1483 1481 1476 1469 1472 1452 1446 1468 1476 1485 1494 1500 1504 1506 1505 1505 1505 1505 1504 1502 1500 1498 1496 1491 1489 1487 1487 1486 1484 1483 1481 1480 1480 1478 1474
1465 1467 1470 1467 1470 1473 1479 1486 1484 1482 1480 1481 1465 1463 1448 1437 1456 1462 1478 1490 1496 1501 1503 1504 1504 1504 1504 1502 1501 1500 1498 1496 1492 1489 1487 1485 1484 1482 1480 1477 1475 1475 1474 1472
1471 1467 1468 1468 1474 1477 1480 1481 1482 1477 1475 1472 1450 1460 1446 1447 1458 1462 1475 1487 1493 1499 1502 1503 1504 1504 1503 1503 1501 1499 1497 1496 1492 1489 1486 1484 1482 1483 1479 1476 1473 1471 1469 1467
1462 1465 1463 1465 1461 1466 1472 1471 1471 1473 1461 1449 1452 1460 1448 1449 1462 1470 1476 1484 1492 1498 1501 1502 1503 1503 1503 1503 1499 1498 1497 1496 1492 1488 1485 1483 1481 1480 1480 1474 1471 1469 1467 1465
1449 1447 1445 1455 1460 1459 1460 1471 1463 1468 1463 1470 1455 1439 1451 1457 1464 1471 1476 1482 1490 1496 1499 1500 1501 1501 1501 1500 1497 1495 1495 1494 1491 1488 1485 1483 1481 1479 1478 1474 1472 1471 1464 1463
1441 1448 1446 1455 1457 1457 1454 1461 1476 1473 1478 1471 1447 1439 1432 1456 1463 1468 1471 1478 1487 1493 1496 1498 1500 1500 1499 1496 1496 1494 1493 1493 1491 1488 1485 1483 1481 1479 1477 1475 1472 1468 1463 1464
1443 1444 1449 1455 1454 1449 1458 1463 1462 1461 1460 1464 1454 1438 1440 1450 1455 1462 1466 1473 1483 1489 1493 1496 1498 1499 1498 1497 1495 1493 1492 1492 1491 1488 1486 1484 1481 1480 1477 1475 1472 1469 1465 1464
1442 1443 1445 1443 1443 1445 1443 1448 1456 1464 1464 1458 1453 1441 1434 1444 1448 1454 1461 1466 1476 1484 1488 1492 1495 1497 1498 1494 1494 1493 1493 1493 1491 1489 1487 1485 1483 1482 1479 1477 1474 1472 1469 1465
1441 1448 1451 1447 1442 1441 1444 1438 1445 1447 1448 1451 1458 1446 1438 1443 1446 1449 1453 1461 1473 1478 1483 1487 1491 1494 1494 1493 1492 1493 1493 1493 1493 1492 1490 1488 1486 1484 1482 1480 1477 1475 1473 1468
1448 1446 1444 1445 1439 1448 1454 1442 1439 1439 1451 1449 1445 1440 1434 1444 1447 1447 1451 1458 1467 1473 1478 1483 1486 1489 1491 1491 1493 1494 1494 1492 1493 1491 1490 1487 1486 1484 1481 1479 1478 1476 1473 1472
1457 1452 1444 1440 1435 1449 1454 1456 1449 1444 1444 1457 1443 1442 1438 1435 1437 1439 1447 1458 1466 1469 1474 1478 1482 1485 1489 1489 1491 1493 1493 1491 1492 1491 1489 1487 1486 1483 1482 1480 1479 1477 1476 1475
1453 1461 1456 1449 1444 1434 1434 1435 1430 1431 1431 1433 1435 1433 1432 1430 1429 1429 1438 1452 1460 1466 1470 1475 1478 1481 1486 1487 1490 1492 1492 1491 1491 1490 1489 1487 1485 1483 1482 1481 1480 1478 1477 1475
1449 1448 1448 1442 1438 1436 1438 1420 1427 1423 1419 1422 1423 1420 1416 1417 1420 1426 1430 1443 1454 1462 1467 1471 1475 1478 1483 1485 1488 1490 1491 1491 1491 1490 1488 1486 1484 1483 1482 1481 1479 1477 1476 1475
1453 1453 1454 1443 1440 1443 1421 1418 1416 1415 1412 1412 1412 1412 1411 1414 1419 1425 1429 1437 1449 1458 1465 1469 1473 1476 1479 1483 1485 1488 1490 1490 1490 1488 1487 1485 1484 1484 1483 1481 1479 1478 1477 1475
1440 1439 1443 1444 1430 1420 1414 1409 1417 1415 1414 1413 1413 1411 1411 1414 1420 1431 1433 1436 1443 1451 1460 1466 1470 1474 1477 1480 1482 1487 1489 1490 1489 1487 1486 1485 1485 1484 1483 1482 1480 1479 1479 1478
1429 1431 1437 1435 1434 1426 1411 1410 1411 1411 1415 1412 1411 1409 1410 1418 1423 1424 1436 1439 1442 1448 1455 1463 1468 1471 1475 1478 1481 1485 1487 1487 1486 1487 1486 1486 1485 1485 1484 1483 1482 1481 1480 1479
1427 1427 1428 1428 1429 1417 1406 1408 1412 1424 1409 1410 1408 1408 1410 1418 1425 1429 1434 1438 1442 1449 1456 1462 1466 1469 1473 1477 1480 1482 1484 1485 1487 1486 1487 1487 1487 1487 1486 1485 1485 1484 1484 1484
1419 1419 1416 1419 1422 1420 1402 1402 1411 1411 1412 1414 1413 1414 1417 1422 1428 1431 1435 1438 1443 1450 1456 1461 1465 1469 1473 1477 1480 1481 1483 1485 1486 1486 1487 1487 1488 1488 1488 1488 1488 1487 1487 1486
1409 1410 1411 1409 1404 1411 1407 1408 1409 1413 1413 1414 1415 1416 1419 1423 1428 1432 1436 1442 1446 1451 1456 1462 1466 1471 1476 1479 1481 1482 1482 1484 1485 1487 1488 1488 1489 1489 1491 1490 1490 1489 1488 1486
1398 1400 1404 1408 1401 1401 1406 1406 1409 1411 1412 1414 1415 1417 1420 1423 1428 1432 1438 1443 1447 1453 1458 1463 1468 1472 1476 1480 1482 1483 1485 1487 1489 1490 1491 1491 1491 1491 1492 1492 1490 1488 1487 1487
1401 1399 1398 1398 1399 1403 1403 1404 1407 1410 1412 1413 1414 1417 1419 1423 1425 1433 1439 1444 1448 1453 1458 1463 1468 1472 1476 1479 1481 1483 1485 1487 1489 1490 1491 1492 1492 1493 1490 1490 1489 1489 1486 1485
1397 1395 1398 1393 1399 1399 1400 1400 1404 1408 1410 1412 1414 1417 1419 1423 1427 1434 1439 1444 1449 1453 1458 1463 1467 1471 1475 1478 1480 1483 1485 1487 1489 1490 1491 1492 1493 1493 1494 1493 1489 1489 1488 1487